This is the latest recevied weather packets stored in our database for station/object KG5MMT-12. If no packets are shown the sender has not sent any weather packets the latest 10 day(s).
| Time | Temp. | Humidity | Pressure | Rain* | Wind** | Luminosity | Snow |
|---|---|---|---|---|---|---|---|
| 1787954057 | 19.44° C | 82% | 0 hPa | 0.51 mm | - | - | - |
| 1787953757 | 19.44° C | 73% | 0 hPa | 0.51 mm | - | - | - |
| 1787953457 | 20° C | 68% | 0 hPa | 0.51 mm | - | - | - |
| 1787953157 | 19.44° C | 62% | 0 hPa | 0.51 mm | - | - | - |
| 1787952857 | 18.33° C | 67% | 0 hPa | 0.51 mm | - | - | - |
| 1787952557 | 17.78° C | 79% | 0 hPa | 0.76 mm | - | - | - |
| 1787952257 | 16.11° C | 84% | 0 hPa | 1.02 mm | - | - | - |
| 1787951957 | 15.56° C | 83% | 0 hPa | 1.27 mm | - | - | - |
| 1787951657 | 15° C | 89% | 0 hPa | 2.03 mm | - | - | - |
| 1787951357 | 14.44° C | 95% | 0 hPa | 3.3 mm | - | - | - |
| 1787951057 | 14.44° C | 94% | 0 hPa | 8.13 mm | - | - | - |
| 1787950757 | 14.44° C | 94% | 0 hPa | 9.91 mm | - | - | - |
| 1787950457 | 14.44° C | 94% | 0 hPa | 10.67 mm | - | - | - |
| 1787950157 | 13.89° C | 94% | 0 hPa | 11.43 mm | - | - | - |
| 1787949857 | 13.89° C | 93% | 0 hPa | 11.68 mm | - | - | - |
| 1787949557 | 13.89° C | 93% | 0 hPa | 11.68 mm | - | - | - |
| 1787949257 | 13.89° C | 93% | 0 hPa | 11.68 mm | - | - | - |
| 1787948957 | 13.89° C | 93% | 0 hPa | 11.43 mm | - | - | - |
| 1787948657 | 13.89° C | 92% | 0 hPa | 11.18 mm | - | - | - |
| 1787948357 | 13.89° C | 91% | 0 hPa | 10.67 mm | - | - | - |
| 1787948057 | 14.44° C | 89% | 0 hPa | 9.91 mm | - | - | - |
| 1787947757 | 15° C | 86% | 0 hPa | 8.64 mm | - | - | - |
| 1787947457 | 16.67° C | 79% | 0 hPa | 3.81 mm | - | - | - |
| 1787947157 | 17.78° C | 81% | 0 hPa | 1.78 mm | - | - | - |
| 1787946857 | 19.44° C | 77% | 0 hPa | 1.02 mm | - | - | - |
* Rain latest hour (hover to see other rain measurements)
** Current wind speed in m/s (hover to see current wind gust speed)